Location: Dayton
(39.7590°N, 84.1920°W)
Time: 17:28:13
(UTC-04:00)

Daily predictions for brighter satellites

Satellite Brightness Start Highest point End
(mag) Time Altitude Azimuth Time Altitude Azimuth Time Altitude Azimuth
Cosmos 1378 Rocket 3.7 21:20:29 10° S 21:24:48 80° W 21:29:07 10° N
GPS 2-05 Rocket1 4.3 21:24:34 10° SSW 21:26:57 19° SSE 21:29:22 10° ESE
SJ-11-01 4.4 21:24:21 10° SSE 21:29:01 67° ENE 21:33:45 10° N
Cosmos 1975 Rocket 3.2 21:27:07 10° S 21:31:20 54° E 21:35:33 10° NNE
Cosmos 2084 3.7 21:27:17 10° SW 21:31:38 74° NW 21:35:45 10° NNE
Cosmos 1725 Rocket 4.3 21:25:53 10° SSW 21:32:02 72° W 21:38:16 10° N
Okean 1 Rocket 3.4 21:30:36 10° NNW 21:34:54 67° W 21:39:11 10° S
Tsikada Rocket 4.3 21:32:09 10° N 21:38:36 79° W 21:44:59 10° S
ATLAS CENTAUR R/B 4.1 21:36:45 10° WNW 21:39:54 18° WSW 21:43:07 10° SSW
Meteor 1-12 Rocket 4.4 21:36:19 10° N 21:42:20 82° E 21:48:21 10° S
Meteor 2-4 Rocket 4.0 21:37:27 10° SSE 21:42:37 46° E 21:47:56 10° NNE
Cosmos 1242 Rocket 2.5 21:38:58 10° N 21:42:37 77° E 21:46:12 10° SSE
ARGOS 4.0 21:37:47 10° SE 21:42:38 35° ENE 21:47:30 10° N
Cosmos 540 Rocket 4.3 21:40:37 10° SSE 21:45:02 29° E 21:49:29 10° NE
YAOGAN 6 4.0 21:43:46 10° SSW 21:47:13 38° W 21:50:40 10° NNW
USA 186 3.6 21:45:01 10° SSW 21:48:00 33° W 21:51:06 10° NNW
Thor Agena Rocket 4.2 21:42:56 10° N 21:48:08 61° WNW 21:53:14 10° SSW
Cosmos 1544 Rocket 4.3 21:44:02 10° N 21:48:10 37° ENE 21:51:54 12° SE
Cosmos 2150 Rocket 4.3 21:43:00 10° N 21:48:15 53° ENE 21:53:01 12° SE
NOAA 11 4.2 21:45:04 10° SSE 21:50:33 88° ENE 21:56:02 10° NNW
Cosmos 2322 Rocket 2.2 21:46:26 10° NNW 21:52:04 87° WSW 21:57:41 10° SSE
Shenzhou-11 Module 1.9 21:49:13 10° WNW 21:52:12 85° NNE 21:54:34 15° ESE
Spot 2 Rocket 3.5 21:48:58 10° SSE 21:54:00 86° WSW 21:59:05 10° NNW
Lacrosse 5 rocket 2.5 21:50:01 10° NNW 21:54:02 35° NE 21:57:27 12° ESE
SJ 16-02 2.8 21:52:14 10° N 21:55:49 23° ENE 21:58:37 13° ESE
Cosmos 1763 Rocket 3.7 21:53:24 10° SSW 21:58:42 80° WNW 22:04:01 10° NNE
Cosmos 1937 Rocket 3.5 21:54:07 10° NNW 21:59:17 86° WSW 22:04:20 10° SSE
Tiangong 2 2.1 21:56:28 10° WNW 21:59:32 45° N 22:02:35 10° ENE
SL-16 R/B 2.5 21:57:20 10° NNW 22:02:58 67° WSW 22:08:35 10° S
Cosmos 1536 Rocket 4.2 22:01:18 13° SSE 22:04:50 37° E 22:08:57 10° NNE
ISS -0.7 22:04:13 10° NW 22:05:52 13° NNW 22:07:31 10° NNE
Cosmos 841 Rocket 3.5 22:00:55 10° SSW 22:06:10 83° ESE 22:11:28 10° NNE
Cosmos 292 Rocket 3.7 22:01:46 10° SSW 22:06:32 80° ESE 22:11:17 10° NNE
BREEZE M DEB (TANK) 3.4 21:55:15 10° WNW 22:06:33 78° NNE 22:09:21 18° ESE
Cosmos 2298 Rocket 4.0 22:04:37 10° NNW 22:09:57 88° WSW 22:14:31 14° SSE
Resurs 01 Rocket 3.1 22:10:30 10° SSW 22:14:31 35° W 22:18:34 10° NNW
USA 234 3.2 22:09:17 10° NE 22:15:54 80° SE 22:22:28 10° SW
Cosmos 1340 Rocket 2.8 22:12:25 10° S 22:16:28 85° E 22:20:34 10° N
CZ-4C R/B 3.8 22:10:28 10° NNW 22:17:01 37° NE 22:23:08 14° ESE
Cosmos 1072 Rocket 4.5 22:11:12 10° S 22:17:31 75° E 22:23:47 10° N
DELTA 2 R/B (1) 4.2 22:17:06 10° SSW 22:21:59 32° SSE 22:26:36 11° E
Cosmos 2219 4.3 22:20:18 20° SE 22:22:24 25° ESE 22:26:59 10° NE
USA 32 4.0 22:17:21 10° N 22:22:38 86° E 22:27:06 14° S
Cosmos 2237 4.5 22:20:06 10° NNW 22:25:44 56° ENE 22:29:15 23° SE
SL-08 RB Rocket 3.7 22:24:27 22° SSE 22:27:20 69° ENE 22:31:54 10° N
CSL-04 DEB 4.5 22:27:35 25° SSE 22:29:51 65° ENE 22:33:55 10° N
ERS-1 Rocket 3.1 22:27:39 23° SE 22:30:42 60° ENE 22:35:39 10° N
CENTAUR R/B 3.2 22:32:58 10° SW 22:38:50 58° NW 22:45:37 10° NNE
Cosmos 2360 Rocket 2.2 22:34:48 10° NNW 22:40:28 81° WSW 22:43:54 25° SSE
Cosmos 1025 Rocket 3.5 22:40:14 32° SE 22:41:36 42° E 22:45:46 10° NNE
Cosmos 2219 Rocket 3.3 22:38:07 10° N 22:43:05 31° ENE 22:45:43 21° ESE
Cosmos 1356 4.4 22:40:33 10° SSW 22:43:49 46° WNW 22:47:11 10° N
Meteor 1-15 Rocket 4.2 22:38:47 10° N 22:44:31 79° E 22:47:48 26° SSE
MetOp-A 4.5 22:43:50 18° S 22:47:48 62° WSW 22:53:07 10° NNW
Aureole 2 Rocket 3.9 22:48:19 10° NW 22:50:35 21° WSW 22:51:29 18° SW
CZ-2C R/B 4.5 22:50:58 21° E 22:53:02 27° ENE 22:57:39 10° N
Okean 2 3.3 22:53:27 35° S 22:55:08 79° E 22:59:19 10° N
SPOT 1/Viking Rocket 3.6 22:55:11 34° SE 22:57:22 65° ENE 23:02:29 10° N
Meteor 1-29 4.2 22:54:51 10° NNE 22:57:17 28° ENE 22:57:17 28° ENE
Cosmos 1455 Rocket 4.5 22:54:19 10° NNW 22:58:16 34° W 23:01:29 14° SSW
Cosmos 1125 Rocket 3.4 22:54:46 10° NNW 23:00:02 82° ENE 23:02:08 37° SSE
Cosmos 2034 Rocket 4.1 22:54:59 13° SSW 23:00:29 76° W 23:06:40 10° N
H-2A R/B 2.5 22:57:46 23° S 23:00:44 55° W 23:05:43 10° NNW
USA 245 3.5 23:00:38 41° S 23:01:50 68° W 23:06:19 10° NNW
Helios 1A 2.9 23:00:58 46° SSE 23:02:08 80° ENE 23:06:20 10° N
Landsat 7 4.0 23:02:11 40° SE 23:03:39 59° ENE 23:08:19 10° N
GPS 2-05 Rocket1 4.4 23:00:40 10° WSW 23:02:11 22° SW 23:02:11 22° SW
Cosmos 1356 Rocket 3.4 23:07:09 40° S 23:08:40 88° WNW 23:13:00 10° N
SL-16 R/B 4.5 23:11:22 10° NNE 23:13:47 13° NE 23:16:12 10° ENE
Cosmos 2333 Rocket 2.7 23:08:18 10° NNW 23:13:51 49° ENE 23:15:46 35° ESE
COSMOS 2455 3.7 23:14:03 29° ESE 23:14:03 29° ESE 23:18:56 10° NE
COSMOS 2428 2.6 23:11:04 10° NNW 23:16:47 82° ENE 23:18:42 44° SSE
Spot 1 3.9 23:19:22 59° ESE 23:19:45 64° ENE 23:23:47 10° N
Terra 2.0 23:21:33 50° ESE 23:22:27 60° ENE 23:27:09 10° N
Helios 1B rocket 2.4 23:19:34 10° N 23:23:43 82° WNW 23:24:33 56° SSW
Cosmos 1634 Rocket 4.0 23:23:15 39° SSE 23:25:39 70° E 23:31:57 10° NNE
SPOT 5 3.0 23:26:23 43° SSW 23:27:31 58° W 23:32:04 10° NNW
Cosmos 2297 Rocket 3.0 23:29:00 32° E 23:29:00 32° E 23:33:37 10° NE
Nimbus 7 Rocket 4.4 23:25:17 10° NNE 23:31:09 63° ESE 23:32:43 46° SSE
Cosmos 1892 Rocket 3.9 23:31:41 48° ENE 23:31:41 48° ENE 23:35:34 10° NNE
Cosmos 2227 Rocket 2.7 23:32:28 39° ESE 23:32:28 39° ESE 23:37:39 10° NE
Lacrosse 5 rocket 2.6 23:29:29 10° WNW 23:33:07 29° WSW 23:33:07 29° WSW
SJ 16-02 2.8 23:30:31 10° NW 23:34:24 30° W 23:35:37 26° SW
IGS 5A 3.3 23:35:34 78° SSW 23:35:48 83° WSW 23:39:58 10° NNW
Tiangong 2 2.6 23:33:17 10° WNW 23:35:15 34° WNW 23:35:15 34° WNW
Cosmos 2228 3.6 23:34:36 10° N 23:38:31 44° ENE 23:38:31 44° ENE
Cosmos 2237 Rocket 2.8 23:35:07 10° N 23:40:35 44° ENE 23:41:55 38° E
ISS -0.6 23:42:25 10° NNW 23:43:30 11° N 23:44:34 10° NNE
Cosmos 1953 4.5 23:41:31 10° NNE 23:43:28 16° ENE 23:43:28 16° ENE
Cosmos 2082 4.3 23:48:08 39° E 23:48:08 39° E 23:53:03 10° NE
Okean 1-7 Rocket 4.0 23:48:21 51° SW 23:49:09 61° W 23:53:40 10° N
Cosmos 1726 Rocket 3.5 23:46:05 10° N 23:50:28 83° ENE 23:50:28 83° ENE
Cosmos 1544 4.0 23:48:20 10° NNW 23:51:33 45° WNW 23:51:33 45° WNW
